Date,TemperatureHighF,TemperatureAvgF,TemperatureLowF,DewpointHighF,DewpointAvgF,DewpointLowF,HumidityHigh,HumidityAvg,HumidityLow,PressureMaxIn,PressureMinIn,WindSpeedMaxMPH,WindSpeedAvgMPH,GustSpeedMaxMPH,PrecipitationSumIn
2013-10-1,77,76,76,-100,-100,-100,0,0,100,0.00,40.00,0,-999,0,0.00
2013-10-2,93,77,73,-100,-100,-100,0,0,100,0.00,40.00,0,-999,0,0.00
2013-10-3,86,78,73,-100,-100,-100,0,0,100,0.00,40.00,0,-999,0,0.00
2013-10-4,88,82,76,-100,-100,-100,0,0,100,0.00,40.00,0,-999,0,0.00
2013-10-5,86,78,75,-100,-100,-100,0,0,100,0.00,40.00,0,-999,0,0.00
2013-10-6,77,70,60,-100,-100,-100,0,0,100,0.00,40.00,0,-999,0,0.00
2013-10-7,76,64,58,-100,-100,-100,0,0,100,0.00,40.00,0,-999,0,0.00
2013-10-8,76,64,56,-100,-100,-100,0,0,100,0.00,40.00,0,-999,0,0.00
2013-10-9,83,70,56,-100,-100,-100,0,0,100,0.00,40.00,0,-999,0,0.00
2013-10-10,82,70,60,-100,-100,-100,0,0,100,0.00,40.00,0,-999,0,0.00
2013-10-11,91,76,64,-100,-100,-100,0,0,100,0.00,40.00,0,-999,0,0.00
2013-10-12,91,77,71,-100,-100,-100,0,0,100,0.00,40.00,0,-999,0,0.00
2013-10-13,84,76,70,-100,-100,-100,0,0,100,0.00,40.00,0,-999,0,0.00
2013-10-14,87,76,69,-100,-100,-100,0,0,100,0.00,40.00,0,-999,0,0.00
2013-10-15,92,78,71,-100,-100,-100,0,0,100,0.00,40.00,0,-999,0,0.00
2013-10-16,87,79,73,-100,-100,-100,0,0,100,0.00,40.00,0,-999,0,0.00
2013-10-17,73,67,62,-100,-100,-100,0,0,100,0.00,40.00,0,-999,0,0.00
2013-10-18,71,65,56,-100,-100,-100,0,0,100,0.00,40.00,0,-999,0,0.00
2013-10-19,72,63,56,-100,-100,-100,0,0,100,0.00,40.00,0,-999,0,0.00
2013-10-20,73,61,53,-100,-100,-100,0,0,100,0.00,40.00,0,-999,0,0.00
2013-10-21,71,63,58,-100,-100,-100,0,0,100,0.00,40.00,0,-999,0,0.00
2013-10-22,69,64,61,-100,-100,-100,0,0,100,0.00,40.00,0,-999,0,0.00
2013-10-23,76,62,53,-100,-100,-100,0,0,100,0.00,40.00,0,-999,0,0.00
2013-10-24,81,68,54,-100,-100,-100,0,0,100,0.00,40.00,0,-999,0,0.00
2013-10-25,69,62,52,-100,-100,-100,0,0,100,0.00,40.00,0,-999,0,0.00
2013-10-26,80,60,47,-100,-100,-100,0,0,100,0.00,40.00,0,-999,0,0.00
2013-10-27,76,64,55,-100,-100,-100,0,0,100,0.00,40.00,0,-999,0,0.00
2013-10-28,80,70,65,-100,-100,-100,0,0,100,0.00,40.00,0,-999,0,0.00
2013-10-29,84,74,66,-100,-100,-100,0,0,100,0.00,40.00,0,-999,0,0.00
2013-10-30,82,74,67,-100,-100,-100,0,0,100,0.00,40.00,0,-999,0,0.00
2013-10-31,77,72,65,-100,-100,-100,0,0,100,0.00,40.00,0,-999,0,0.00